CW8440 Weather Reports


time (UTC)temp
C
wind
direction
speed
KPH
gust
KPH
rain 1hr
cm
rain 24hr
cm
rain mn
cm
humidity
%
barometer
mb
20211017165300 13 323 8.0 22.5 0.05 1.68 1.63 75 1000.1
20211017164800 13 291 6.4 16.1 0.05 1.68 1.63 75 1000.3
20211017164301 13 313 6.4 16.1 0.05 1.68 1.63 76 1000.4
20211017163801 13 312 6.4 17.7 0.05 1.68 1.63 75 1000.5
20211017163300 13 305 6.4 17.7 0.03 1.65 1.60 76 1000.6
20211017162806 13 292 8.0 17.7 0.03 1.65 1.60 75 1000.6
20211017162259 13 285 6.4 17.7 0.00 1.63 1.57 75 1000.6
20211017161759 13 315 4.8 12.9 0.00 1.63 1.57 75 1000.6
20211017161300 13 320 4.8 12.9 0.00 1.63 1.57 75 1000.6
20211017160759 13 325 3.2 12.9 0.00 1.63 1.57 76 1000.6
20211017160301 13 328 3.2 12.9 0.03 1.63 1.57 75 1000.6
20211017155803 13 319 3.2 20.9 0.03 1.65 1.57 75 1000.6
20211017155257 13 320 4.8 20.9 0.05 1.65 1.57 75 1000.7
20211017154756 14 315 6.4 20.9 0.05 1.65 1.57 75 1000.7
20211017154258 14 300 4.8 20.9 0.08 1.68 1.57 75 1000.7
20211017153758 14 273 3.2 11.3 0.08 1.96 1.57 75 1000.7
20211017153257 14 248 4.8 11.3 0.08 2.13 1.57 75 1000.7
20211017152800 14 250 3.2 11.3 0.08 2.21 1.57 75 1000.9
20211017152257 14 232 3.2 11.3 0.08 2.21 1.57 75 1000.9
20211017151800 14 271 3.2 11.3 0.08 2.21 1.57 76 1000.9
20211017151257 14 246 4.8 11.3 0.08 2.21 1.57 76 1000.8
20211017150801 14 250 4.8 12.9 0.08 2.21 1.57 75 1000.9
20211017150253 14 255 6.4 12.9 0.05 2.18 1.55 75 1001.0
20211017145755 14 197 4.8 12.9 0.05 2.18 1.55 75 1001.1
20211017145300 14 235 4.8 12.9 0.03 2.16 1.52 75 1001.2
20211017144756 14 228 4.8 12.9 0.03 2.18 1.52 75 1001.2
20211017144254 14 200 4.8 12.9 0.00 2.16 1.50 75 1001.3
20211017143755 15 214 4.8 11.3 0.00 2.16 1.50 75 1001.1
20211017143254 15 219 3.2 8.0 0.00 2.18 1.50 75 1001.1
20211017142754 15 205 3.2 8.0 0.00 2.18 1.50 75 1001.2
20211017142259 15 215 3.2 8.0 0.00 2.18 1.50 75 1001.0
20211017141752 15 215 3.2 8.0 0.03 2.18 1.50 75 1001.0
20211017141254 15 215 1.6 8.0 0.05 2.18 1.50 75 1000.9
20211017140752 15 215 3.2 8.0 0.05 2.18 1.50 75 1000.8
20211017140252 15 240 3.2 6.4 0.05 2.18 1.50 75 1000.9
20211017135758 15 263 1.6 9.7 0.05 2.21 1.50 76 1000.7
20211017135252 15 265 1.6 9.7 0.08 2.21 1.50 76 1000.7
20211017134755 15 265 3.2 9.7 0.08 2.21 1.50 76 1000.6
20211017134252 14 265 3.2 9.7 0.08 2.21 1.50 76 1000.8
20211017133752 14 235 3.2 6.4 0.08 2.24 1.50 76 1000.8
20211017133253 14 246 3.2 6.4 0.08 2.26 1.50 76 1000.5
20211017132750 14 245 1.6 4.8 0.08 2.29 1.50 76 1001.1
20211017132252 14 245 1.6 4.8 0.08 2.31 1.50 76 1000.8
20211017131752 14 245 0.0 3.2 0.05 2.31 1.47 76 1000.4
20211017131250 14 245 1.6 3.2 0.03 2.31 1.45 76 1000.6
20211017130750 14 245 0.0 6.4 0.03 2.34 1.45 76 1001.0
20211017130252 14 245 0.0 6.4 0.03 2.39 1.45 76 1000.7
20211017125751 14 245 1.6 6.4 0.03 2.41 1.45 76 1001.1
20211017125251 14 245 3.2 6.4 0.00 2.44 1.42 76 1001.2
20211017124750 14 300 3.2 4.8 0.00 2.49 1.42 76 1001.4
20211017124250 14 300 1.6 4.8 0.00 2.51 1.42 76 1001.0
20211017123748 14 301 0.0 3.2 0.00 2.59 1.42 76 1000.6
20211017123248 14 301 0.0 3.2 0.00 2.64 1.42 76 1000.4
20211017122752 14 301 0.0 4.8 0.00 2.69 1.42 76 1000.1
20211017122250 14 301 1.6 4.8 0.00 2.72 1.42 76 1000.4
20211017121748 14 301 1.6 4.8 0.00 2.74 1.42 76 1000.3
20211017121247 14 301 0.0 4.8 0.00 2.79 1.42 76 1000.5
20211017120747 14 301 0.0 1.6 0.00 2.82 1.42 76 1000.4
20211017120248 14 301 0.0 1.6 0.00 2.84 1.42 76 1000.7
20211017115749 14 301 0.0 4.8 0.00 2.87 1.42 76 1000.6
20211017115248 14 301 0.0 4.8 0.03 2.87 1.42 76 1000.3
20211017114752 14 301 1.6 6.4 0.03 2.90 1.42 76 1000.5
20211017114248 14 301 1.6 6.4 0.03 2.90 1.42 76 1000.8
20211017113746 14 301 3.2 6.4 0.03 2.90 1.42 76 1000.8
20211017113248 14 301 3.2 8.0 0.03 2.90 1.42 75 1000.8
20211017112742 14 309 1.6 8.0 0.05 2.90 1.42 75 1000.6
20211017112241 14 316 1.6 4.8 0.05 2.90 1.42 75 1000.5
20211017111742 13 316 1.6 9.7 0.08 2.92 1.42 75 1000.4
20211017111243 13 316 1.6 9.7 0.08 2.92 1.42 75 1000.4
20211017110743 13 316 3.2 11.3 0.13 2.92 1.42 75 1000.3
20211017110241 13 313 3.2 12.9 0.15 2.92 1.42 75 1000.2
20211017105739 13 323 4.8 12.9 0.18 2.92 1.42 75 1000.3
20211017105239 14 307 3.2 14.5 0.18 2.92 1.40 75 1000.4
20211017104739 14 312 3.2 14.5 0.20 2.92 1.40 75 1000.3
20211017104238 14 318 6.4 20.9 0.23 2.92 1.40 75 1000.3
20211017103739 14 322 8.0 20.9 0.25 2.95 1.40 75 1000.4
20211017103238 14 313 8.0 24.1 0.28 2.95 1.40 75 1000.4
20211017102739 14 299 9.7 24.1 0.28 2.92 1.40 75 1000.7
20211017102238 14 308 9.7 24.1 0.28 2.92 1.37 75 1000.8
20211017101739 15 329 8.0 24.1 0.25 2.90 1.35 75 1000.4
20211017101239 15 300 6.4 20.9 0.28 2.92 1.35 75 1000.6
20211017100740 15 211 6.4 17.7 0.23 2.90 1.32 75 1000.9
20211017100239 15 221 6.4 16.1 0.25 2.87 1.27 75 1000.5
20211017095739 15 190 8.0 16.1 0.25 2.87 1.24 75 1000.6
20211017095238 15 190 9.7 17.7 0.30 2.84 1.22 75 1000.4
20211017094738 15 211 9.7 19.3 0.25 2.79 1.19 75 1000.5
20211017094239 15 189 11.3 19.3 0.25 2.79 1.17 75 1000.2
20211017093739 16 180 11.3 24.1 0.25 2.77 1.14 75 1000.2
20211017093239 16 209 11.3 24.1 0.23 2.74 1.14 75 1000.2
20211017092744 16 180 12.9 27.4 0.20 2.72 1.09 75 1000.3
20211017092239 16 157 12.9 27.4 0.20 2.72 1.09 75 1000.3
20211017091739 15 178 11.3 24.1 0.20 2.72 1.09 75 1000.5
20211017091239 16 160 11.3 24.1 0.20 2.69 1.07 75 1000.6
20211017090739 16 170 12.9 27.4 0.25 2.69 1.07 75 1000.6
20211017090238 16 209 14.5 37.0 0.33 2.64 1.02 75 1000.7
20211017085739 16 167 14.5 37.0 0.46 2.59 0.97 75 1000.9
20211017085237 16 167 17.7 38.6 0.53 2.54 0.94 75 1000.9
20211017084738 16 184 20.9 48.3 0.71 2.54 0.91 75 1001.0
20211017084239 16 255 19.3 48.3 0.84 2.54 0.91 75 1001.0
20211017083737 16 219 14.5 38.6 0.86 2.51 0.89 75 1000.8
20211017083238 15 200 14.5 37.0 0.86 2.51 0.89 75 1001.2
20211017082738 15 219 16.1 40.2 0.89 2.51 0.89 75 1001.4
20211017082237 15 163 19.3 40.2 0.89 2.51 0.89 75 1000.9
20211017081739 15 165 20.9 46.7 0.89 2.51 0.89 75 1001.0
20211017081236 15 120 20.9 46.7 0.86 2.49 0.86 75 1000.9
20211017080735 15 183 20.9 43.5 0.81 2.44 0.81 75 1000.8
20211017080236 15 142 20.9 43.5 0.69 2.31 0.74 74 1000.7
20211017075736 15 167 20.9 38.6 0.51 2.13 0.51 74 1000.8
20211017075237 15 132 20.9 40.2 0.38 2.01 0.38 74 1000.8
20211017074735 15 164 20.9 41.8 0.20 1.83 0.20 74 1001.0
20211017074236 16 171 20.9 43.5 0.08 1.70 0.08 74 1001.0
20211017073736 16 190 22.5 43.5 0.03 1.65 0.03 74 1000.8
20211017073236 16 165 20.9 41.8 0.03 1.65 0.03 74 1001.1
20211017072734 16 179 20.9 33.8 0.00 1.63 0.00 74 1001.1
20211017072234 16 177 20.9 35.4 0.00 1.63 0.00 74 1001.1
20211017071734 16 167 20.9 38.6 0.00 1.63 0.00 73 1001.3
20211017071234 16 162 22.5 40.2 0.00 1.63 0.00 73 1001.3
20211017070733 16 143 22.5 40.2 0.00 1.63 0.00 73 1001.4
20211017070234 16 190 24.1 43.5 0.00 1.63 0.00 74 1001.4
20211017065733 16 197 24.1 45.1 0.00 1.63 0.00 74 1001.6
20211017065240 16 175 24.1 49.9 0.00 1.63 0.00 74 1001.7
20211017064734 16 176 22.5 49.9 0.00 1.63 0.00 74 1001.6
20211017064234 16 119 22.5 49.9 0.00 1.63 0.00 74 1001.7
20211017063734 16 184 22.5 49.9 0.00 1.63 0.00 74 1001.9
20211017063234 16 154 20.9 46.7 0.00 1.63 0.00 74 1002.1
20211017062733 16 165 19.3 46.7 0.00 1.63 0.00 74 1002.2
20211017062240 16 125 19.3 38.6 0.00 1.63 0.00 74 1002.4
20211017061734 16 183 19.3 41.8 0.00 1.63 0.00 74 1002.5
20211017061233 16 152 20.9 41.8 0.00 1.63 0.00 74 1002.7
20211017060733 16 198 20.9 40.2 0.00 1.63 0.00 74 1002.6
20211017060234 16 153 19.3 40.2 0.00 1.63 0.00 74 1002.9
20211017055731 16 162 19.3 37.0 0.00 1.63 0.00 74 1003.0
20211017055232 16 156 19.3 35.4 0.00 1.63 0.00 74 1003.1
20211017054731 16 151 19.3 35.4 0.00 1.63 0.00 74 1003.3
20211017054231 16 143 20.9 38.6 0.00 1.63 0.00 74 1003.3
20211017053736 16 159 20.9 38.6 0.00 1.63 0.00 74 1003.4
20211017053231 16 162 20.9 45.1 0.00 1.63 0.00 74 1003.5
20211017052731 16 167 22.5 45.1 0.00 1.63 0.00 74 1003.6
20211017052233 15 192 22.5 45.1 0.00 1.63 0.00 74 1003.5
20211017051731 15 146 22.5 45.1 0.00 1.63 0.00 74 1003.7
20211017051232 16 158 20.9 45.1 0.00 1.63 0.00 74 1003.9
20211017050731 15 144 20.9 41.8 0.00 1.63 0.00 74 1003.9
20211017050231 15 116 19.3 38.6 0.00 1.63 0.00 74 1004.0
20211017045731 15 161 17.7 38.6 0.00 1.63 0.00 74 1004.0
20211017045229 15 194 19.3 40.2 0.00 1.63 0.00 74 1004.2
20211017044735 15 174 19.3 40.2 0.00 1.63 0.00 74 1004.1
20211017044229 15 160 20.9 43.5 0.00 1.63 0.00 74 1004.4
20211017043729 15 196 20.9 43.5 0.00 1.63 0.00 74 1004.7
20211017043231 15 176 20.9 37.0 0.00 1.63 0.00 74 1004.7
20211017042730 15 124 19.3 37.0 0.00 1.63 0.00 74 1004.6
20211017042229 15 165 17.7 38.6 0.00 1.63 0.00 74 1004.9
20211017041729 15 178 19.3 40.2 0.00 1.63 0.00 74 1004.9
20211017041231 15 157 19.3 40.2 0.00 1.63 0.00 74 1005.0
20211017040732 15 139 19.3 37.0 0.00 1.63 0.00 74 1005.2
20211017040229 15 169 19.3 37.0 0.00 1.63 0.00 74 1005.1
20211017035735 15 121 19.3 37.0 0.00 1.63 1.63 74 1005.1
20211017035229 15 163 19.3 38.6 0.00 1.63 1.63 74 1005.3
20211017034728 15 150 19.3 38.6 0.00 1.63 1.63 74 1005.4
20211017034227 15 169 17.7 37.0 0.00 1.63 1.63 74 1005.6
20211017033729 15 191 17.7 37.0 0.00 1.63 1.63 74 1005.5
20211017033227 15 141 17.7 41.8 0.00 1.63 1.63 74 1005.6
20211017032728 15 158 19.3 41.8 0.00 1.63 1.63 74 1005.7
20211017032225 16 181 19.3 41.8 0.00 1.63 1.63 74 1005.7
20211017031732 16 198 20.9 37.0 0.00 1.63 1.63 74 1005.8
20211017031225 16 134 20.9 38.6 0.00 1.63 1.63 74 1005.8
20211017030724 16 155 20.9 40.2 0.00 1.63 1.63 74 1006.0
20211017030226 16 178 22.5 40.2 0.00 1.63 1.63 74 1006.0
20211017025725 16 180 20.9 40.2 0.00 1.63 1.63 74 1006.0
20211017025225 15 182 19.3 40.2 0.00 1.63 1.63 74 1006.0
20211017024727 15 160 19.3 37.0 0.00 1.63 1.63 74 1006.2
20211017024224 15 106 19.3 38.6 0.00 1.63 1.63 74 1006.2
20211017023731 15 153 20.9 38.6 0.00 1.63 1.63 74 1006.2
20211017023226 15 186 20.9 37.0 0.00 1.63 1.63 74 1006.3
20211017022729 15 158 19.3 37.0 0.00 1.63 1.63 75 1006.4
20211017022227 15 182 19.3 37.0 0.00 1.63 1.63 75 1006.7
20211017021726 15 160 19.3 37.0 0.00 1.63 1.63 75 1006.5
20211017021227 15 162 20.9 35.4 0.00 1.63 1.63 75 1006.6
20211017020725 15 187 20.9 38.6 0.00 1.63 1.63 75 1006.6
20211017020226 15 173 19.3 38.6 0.00 1.63 1.63 75 1006.6
20211017015727 15 169 19.3 41.8 0.00 1.63 1.63 75 1006.6
20211017015226 15 184 19.3 41.8 0.00 1.63 1.63 75 1006.5
20211017014729 15 121 20.9 37.0 0.00 1.63 1.63 75 1006.5
20211017014224 15 186 20.9 37.0 0.00 1.63 1.63 75 1006.7
20211017013724 15 189 17.7 33.8 0.00 1.63 1.63 75 1006.6
20211017013227 15 178 19.3 38.6 0.00 1.63 1.63 75 1006.8
20211017012726 15 207 20.9 38.6 0.00 1.63 1.63 75 1006.8
20211017012226 15 157 20.9 38.6 0.00 1.63 1.63 75 1006.9
20211017011725 15 161 20.9 40.2 0.00 1.63 1.63 75 1006.9
20211017011234 15 148 19.3 40.2 0.00 1.63 1.63 75 1006.9
20211017010732 15 184 17.7 32.2 0.00 1.63 1.63 75 1007.1
20211017010227 15 186 16.1 30.6 0.00 1.63 1.63 75 1007.0
20211017005726 15 181 16.1 32.2 0.00 1.63 1.63 75 1007.0
20211017005226 15 170 16.1 32.2 0.00 1.63 1.63 75 1007.0
20211017004728 15 184 17.7 37.0 0.00 1.63 1.63 75 1007.1
20211017004226 15 171 19.3 37.0 0.00 1.63 1.63 75 1007.0
20211017003726 15 180 19.3 37.0 0.00 1.63 1.63 75 1007.1
20211017003226 15 190 17.7 37.0 0.00 1.63 1.63 75 1007.1
20211017002731 15 183 20.9 33.8 0.00 1.63 1.63 75 1007.1
20211017002226 15 140 19.3 33.8 0.00 1.63 1.63 75 1007.0
20211017001722 15 182 19.3 33.8 0.00 1.63 1.63 75 1007.1
20211017001225 15 189 17.7 33.8 0.00 1.63 1.63 75 1007.1
20211017000722 15 199 14.5 27.4 0.00 1.63 1.63 75 1007.2
20211017000222 15 181 12.9 27.4 0.00 1.63 1.63 75 1007.2
20211016235724 15 186 14.5 25.7 0.00 1.63 1.63 75 1007.2
20211016235224 15 182 12.9 25.7 0.00 1.63 1.63 75 1007.4
20211016234723 15 176 12.9 25.7 0.00 1.63 1.63 75 1007.5
20211016234223 15 194 14.5 25.7 0.00 1.63 1.63 75 1007.5
20211016233725 15 179 12.9 25.7 0.00 1.63 1.63 75 1007.5
20211016233224 15 156 14.5 25.7 0.00 1.63 1.63 75 1007.6
20211016232722 15 173 16.1 27.4 0.00 1.63 1.63 75 1007.5
20211016232224 15 168 14.5 27.4 0.00 1.63 1.63 75 1007.6
20211016231723 15 180 16.1 27.4 0.00 1.63 1.63 75 1007.5
20211016231224 15 185 14.5 27.4 0.00 1.63 1.63 75 1007.5
20211016230724 15 180 12.9 27.4 0.00 1.63 1.63 75 1007.4
20211016230227 15 188 12.9 27.4 0.00 1.63 1.63 75 1007.5
20211016225723 15 173 14.5 25.7 0.00 1.63 1.63 75 1007.5
20211016225223 15 189 14.5 27.4 0.00 1.63 1.63 75 1007.5
20211016224724 15 173 14.5 27.4 0.00 1.63 1.63 75 1007.6
20211016224227 15 150 12.9 27.4 0.00 1.63 1.63 75 1007.5
20211016223723 15 170 12.9 25.7 0.00 1.63 1.63 75 1007.7
20211016223222 15 188 12.9 25.7 0.03 1.63 1.63 75 1007.6
20211016222724 15 181 12.9 24.1 0.03 1.63 1.63 75 1007.7
20211016222222 15 156 12.9 27.4 0.03 1.63 1.63 75 1007.7
20211016221723 15 167 14.5 27.4 0.03 1.63 1.63 75 1007.7
20211016221222 15 165 14.5 27.4 0.03 1.63 1.63 75 1007.7
20211016220722 15 181 14.5 27.4 0.03 1.63 1.63 75 1007.7
20211016220225 15 173 14.5 27.4 0.03 1.63 1.63 75 1007.7
20211016215723 15 167 14.5 32.2 0.03 1.63 1.63 75 1007.6
20211016215224 15 162 14.5 32.2 0.03 1.63 1.63 75 1007.6
20211016214734 15 171 12.9 27.4 0.03 1.63 1.63 75 1007.6
20211016214224 15 155 12.9 27.4 0.03 1.63 1.63 75 1007.7
20211016213724 15 162 12.9 27.4 0.03 1.63 1.63 75 1007.7
20211016213222 15 181 11.3 29.0 0.00 1.60 1.63 75 1007.5
20211016212723 15 147 11.3 29.0 0.00 1.60 1.60 75 1007.6
20211016212226 15 144 14.5 30.6 0.00 1.60 1.60 75 1007.5
20211016211722 15 177 14.5 30.6 0.00 1.60 1.60 75 1007.6
20211016211227 15 162 16.1 30.6 0.00 1.60 1.60 76 1007.7
20211016210722 15 147 16.1 32.2 0.00 1.60 1.60 76 1007.9
20211016210222 15 186 16.1 32.2 0.00 1.60 1.60 76 1007.9
20211016205722 15 189 16.1 27.4 0.00 1.60 1.60 76 1007.9
20211016205227 15 186 16.1 29.0 0.00 1.60 1.60 76 1007.8
20211016204722 15 167 16.1 29.0 0.00 1.60 1.60 76 1007.9
20211016204220 15 201 14.5 33.8 0.00 1.60 1.60 76 1007.9
20211016203721 15 201 14.5 33.8 0.00 1.60 1.60 76 1008.0
20211016203222 15 188 14.5 27.4 0.00 1.60 1.60 76 1008.0
20211016202727 15 190 12.9 27.4 0.00 1.60 1.60 76 1008.0
20211016202221 15 192 12.9 25.7 0.00 1.60 1.60 76 1008.1
20211016201721 15 162 12.9 24.1 0.00 1.60 1.60 76 1008.0
20211016201224 15 169 12.9 24.1 0.00 1.60 1.60 76 1008.1
20211016200720 15 150 12.9 22.5 0.00 1.60 1.60 76 1008.0
20211016200222 15 189 12.9 22.5 0.00 1.60 1.60 76 1008.1
20211016195719 15 198 11.3 22.5 0.00 1.60 1.60 76 1008.1
20211016195220 15 189 9.7 19.3 0.00 1.60 1.60 76 1008.2
20211016194718 15 188 9.7 19.3 0.00 1.60 1.60 76 1008.2
20211016194219 15 192 9.7 19.3 0.00 1.60 1.60 76 1008.3
20211016193719 15 163 9.7 19.3 0.00 1.60 1.60 76 1008.4
20211016193218 15 190 9.7 19.3 0.00 1.60 1.60 76 1008.6
20211016192719 15 193 9.7 17.7 0.00 1.60 1.60 76 1008.6
20211016192221 15 186 8.0 17.7 0.00 1.60 1.60 76 1008.6
20211016191719 15 185 9.7 25.7 0.00 1.60 1.60 76 1008.6
20211016191218 15 204 11.3 25.7 0.00 1.60 1.60 76 1008.6
20211016190720 15 182 12.9 27.4 0.00 1.60 1.60 76 1008.6
20211016190220 15 172 12.9 27.4 0.00 1.60 1.60 76 1008.5
20211016185718 15 203 12.9 27.4 0.00 1.60 1.60 76 1008.5
20211016185224 15 162 12.9 29.0 0.00 1.60 1.60 76 1008.4
20211016184718 15 202 12.9 29.0 0.00 1.60 1.60 76 1008.6
20211016184219 15 173 12.9 27.4 0.00 1.60 1.60 76 1008.5
20211016183724 15 163 11.3 22.5 0.00 1.60 1.60 76 1008.5
20211016183218 15 184 11.3 20.9 0.03 1.60 1.60 76 1008.6
20211016182719 15 156 12.9 25.7 0.03 1.60 1.60 76 1008.7
20211016182217 15 176 12.9 25.7 0.03 1.60 1.60 76 1008.8
20211016181719 15 136 12.9 27.4 0.03 1.60 1.60 76 1008.8
20211016181216 15 175 12.9 27.4 0.03 1.60 1.60 76 1008.7
20211016180718 15 182 12.9 27.4 0.03 1.60 1.60 76 1008.7
20211016180218 15 186 12.9 22.5 0.03 1.60 1.60 76 1008.8
20211016175716 15 191 12.9 24.1 0.03 1.60 1.60 76 1008.8
20211016175216 15 165 14.5 29.0 0.03 1.60 1.60 76 1008.8
20211016174718 15 189 14.5 29.0 0.03 1.60 1.60 76 1008.8
20211016174216 15 226 16.1 30.6 0.03 1.60 1.60 76 1008.9
20211016173717 15 151 16.1 30.6 0.03 1.60 1.60 76 1008.9
20211016173213 15 153 16.1 27.4 0.00 1.57 1.57 76 1009.0
20211016172716 15 150 14.5 30.6 0.00 1.57 1.57 76 1009.0
20211016172215 15 183 14.5 30.6 0.00 1.57 1.57 76 1009.1
20211016171716 15 161 16.1 30.6 0.00 1.57 1.57 76 1009.1
20211016171212 15 157 17.7 30.6 0.00 1.57 1.57 76 1009.1
20211016170712 15 171 16.1 30.6 0.00 1.57 1.57 76 1009.2
20211016170213 15 174 16.1 29.0 0.00 1.57 1.57 76 1009.2
20211016165713 15 186 16.1 29.0 0.03 1.57 1.57 76 1009.3